This demonstration page uses our WeatherBlox Daily Observations layout. Learn more.

Left ArrowRight Arrow

39.01783, -85.05884

Hourly Observations for May 10, 2022

Temp ( °F °C ) Dew Point ( °F °C ) Humidity (%) Winds ( mph kmh ) Pressure ( in mb ) Visibility ( mi km ) Precip ( " mm )
12:52 am 00:52 Clear 65 18.3 50 10 59 59 SE 13 20 30.06 1018 10 16 0.00 0.00
1:52 am 01:52 Clear 64 17.8 50 10 60 60 SSE 12 19 30.07 1018 10 16 0.00 0.00
2:52 am 02:52 Clear 62 16.7 50 10 65 65 SE 7 11 30.08 1019 10 16 0.00 0.00
3:52 am 03:52 Clear 61 16.1 50 10 67 67 SE 6 9 30.10 1019 10 16 0.00 0.00
4:52 am 04:52 Clear 60 15.6 50 10 70 70 SSE 6 9 30.13 1020 10 16 0.00 0.00
5:52 am 05:52 Clear 59 15 51 10.6 75 75 SSE 6 9 30.16 1021 10 16 0.00 0.00
6:12 am 06:12 Mostly Cloudy 59 15 52 11.1 78 78 SSE 7 11 30.17 1022 10 16 0.00 0.00
6:52 am 06:52 Mostly Cloudy 58 14.4 52 11.1 81 81 SSE 8 13 30.17 1022 10 16 0.00 0.00
7:52 am 07:52 Mostly Sunny 63 17.2 55 12.8 76 76 S 8 13 30.18 1022 10 16 0.00 0.00
8:52 am 08:52 Mostly Sunny 68 20 58 14.4 70 70 S 10 17 30.19 1022 10 16 0.00 0.00
9:52 am 09:52 Mostly Cloudy 71 21.7 60 15.6 68 68 S 13 20 30.20 1023 10 16 0.00 0.00
10:52 am 10:52 Cloudy 72 22.2 61 16.1 68 68 S 8 13 30.21 1023 10 16 0.00 0.00
11:52 am 11:52 Mostly Cloudy 76 24.4 63 17.2 64 64 S 12 19 30.19 1022 10 16 0.00 0.00
12:52 pm 12:52 Mostly Cloudy 78 25.6 64 17.8 62 62 S 13 20 30.18 1022 10 16 0.00 0.00
1:52 pm 13:52 Mostly Sunny 80 26.7 65 18.3 60 60 SSE 12 19 30.16 1021 10 16 0.00 0.00
2:52 pm 14:52 Mostly Sunny 81 27.2 66 18.9 61 61 SSW 14 22 30.13 1020 10 16 0.00 0.00
3:52 pm 15:52 Partly Cloudy 82 27.8 67 19.4 60 60 S 12 19 30.13 1020 10 16 0.00 0.00
4:52 pm 16:52 Mostly Sunny 83 28.3 67 19.4 59 59 SSW 10 17 30.11 1020 10 16 0.00 0.00
5:52 pm 17:52 Mostly Sunny 83 28.3 67 19.4 59 59 SSE 9 15 30.11 1020 10 16 0.00 0.00
6:52 pm 18:52 Partly Cloudy 81 27.2 67 19.4 62 62 S 9 15 30.11 1020 10 16 0.00 0.00
7:52 pm 19:52 Partly Cloudy 79 26.1 67 19.4 67 67 SSW 5 7 30.11 1020 10 16 0.00 0.00
8:52 pm 20:52 Mostly Cloudy 77 25 66 18.9 69 69 SSE 12 19 30.12 1020 10 16 0.00 0.00
9:52 pm 21:52 Mostly Clear 74 23.3 65 18.3 74 74 SSE 7 11 30.13 1020 10 16 0.00 0.00
10:52 pm 22:52 Clear 73 22.8 64 17.8 74 74 S 6 9 30.13 1020 10 16 0.00 0.00
11:52 pm 23:52 Clear 72 22.2 64 17.8 76 76 S 5 7 30.13 1020 10 16 0.00 0.00

Powered by AerisWeather